Location: Bruderhein
(53.8035°N, 112.9265°W)
Time: 14:09:39
(UTC+00:00)

deb Delta 139 - Pass Details

Date: 04 December 2023
Orbit: 731 x 794 km, 98.6° (Epoch: 01 March)

Event Time Altitude Azimuth Distance (km) Brightness Sun altitude
Rises 02:37:11 0° 202° (SSW) 3,264 ? -28.8°
Reaches altitude 10° 02:39:58 10° 217° (SW) 2,331 ? -29.2°
Maximum altitude 02:44:02 23° 269° (W) 1,595 ? -29.8°
Drops below altitude 10° 02:48:04 10° 321° (NW) 2,313 ? -30.4°
Sets 02:50:49 0° 336° (NNW) 3,232 ? -30.8°
